TimeEST,TemperatureF,Dew PointF,Humidity,Sea Level PressureIn,VisibilityMPH,Wind Direction,Wind SpeedMPH,Gust SpeedMPH,PrecipitationIn,Events,Conditions,WindDirDegrees,DateUTC
12:15 AM,26.6,24.8,93,30.47,3.0,East,3.5,-,N/A,,Overcast,90,2012-12-02 05:15:00
12:35 AM,26.6,24.8,93,30.46,2.5,Calm,Calm,-,N/A,,Overcast,0,2012-12-02 05:35:00
12:55 AM,28.4,24.8,86,30.46,1.8,Calm,Calm,-,N/A,,Overcast,0,2012-12-02 05:55:00
1:15 AM,28.4,24.8,86,30.45,3.0,Calm,Calm,-,N/A,,Overcast,0,2012-12-02 06:15:00
1:35 AM,28.4,24.8,86,30.45,5.0,Calm,Calm,-,N/A,,Overcast,0,2012-12-02 06:35:00
1:55 AM,28.4,24.8,86,30.45,3.0,Calm,Calm,-,N/A,,Overcast,0,2012-12-02 06:55:00
2:15 AM,28.4,24.8,86,30.45,5.0,Calm,Calm,-,N/A,,Overcast,0,2012-12-02 07:15:00
2:35 AM,28.4,26.6,93,30.44,3.0,Calm,Calm,-,N/A,,Overcast,0,2012-12-02 07:35:00
2:55 AM,28.4,26.6,93,30.44,3.0,Calm,Calm,-,N/A,,Overcast,0,2012-12-02 07:55:00
3:15 AM,28.4,26.6,93,30.42,4.0,Calm,Calm,-,N/A,,Overcast,0,2012-12-02 08:15:00
3:35 AM,28.4,26.6,93,30.41,2.5,Calm,Calm,-,N/A,,Overcast,0,2012-12-02 08:35:00
3:55 AM,30.2,26.6,86,30.41,3.0,Calm,Calm,-,N/A,,Overcast,0,2012-12-02 08:55:00
4:15 AM,30.2,26.6,86,30.41,5.0,Calm,Calm,-,N/A,,Overcast,0,2012-12-02 09:15:00
4:35 AM,30.2,26.6,86,30.40,4.0,Calm,Calm,-,N/A,,Overcast,0,2012-12-02 09:35:00
4:55 AM,30.2,26.6,86,30.39,2.5,Calm,Calm,-,N/A,,Overcast,0,2012-12-02 09:55:00
5:15 AM,30.2,28.4,93,30.39,2.5,Calm,Calm,-,N/A,,Overcast,0,2012-12-02 10:15:00
5:35 AM,30.2,28.4,93,30.38,1.8,Calm,Calm,-,N/A,,Overcast,0,2012-12-02 10:35:00
5:55 AM,30.2,26.6,86,30.37,1.8,Calm,Calm,-,N/A,,Overcast,0,2012-12-02 10:55:00
6:15 AM,30.2,28.4,93,30.37,1.8,Calm,Calm,-,N/A,,Overcast,0,2012-12-02 11:15:00
6:35 AM,30.2,28.4,93,30.36,2.0,Calm,Calm,-,N/A,,Overcast,0,2012-12-02 11:35:00
6:55 AM,30.2,28.4,93,30.35,1.8,Calm,Calm,-,N/A,,Overcast,0,2012-12-02 11:55:00
7:15 AM,30.2,28.4,93,30.34,1.2,Calm,Calm,-,N/A,,Overcast,0,2012-12-02 12:15:00
7:35 AM,30.2,28.4,93,30.34,1.0,Calm,Calm,-,N/A,,Overcast,0,2012-12-02 12:35:00
7:55 AM,30.2,28.4,93,30.34,0.8,Calm,Calm,-,N/A,,Overcast,0,2012-12-02 12:55:00
8:15 AM,30.2,28.4,93,30.33,0.5,Calm,Calm,-,N/A,,Overcast,0,2012-12-02 13:15:00
8:35 AM,30.2,28.4,93,30.32,0.5,Calm,Calm,-,N/A,,Overcast,0,2012-12-02 13:35:00
8:55 AM,32.0,28.4,87,30.31,0.8,Calm,Calm,-,N/A,,Overcast,0,2012-12-02 13:55:00
9:15 AM,32.0,28.4,87,30.30,0.2,Calm,Calm,-,N/A,,Overcast,0,2012-12-02 14:15:00
9:35 AM,32.0,28.4,87,30.30,0.2,Calm,Calm,-,N/A,,Overcast,0,2012-12-02 14:35:00
9:55 AM,32.0,30.2,93,30.30,0.5,Calm,Calm,-,N/A,,Overcast,0,2012-12-02 14:55:00
10:15 AM,32.0,30.2,93,30.29,0.2,Calm,Calm,-,N/A,,Overcast,0,2012-12-02 15:15:00
10:35 AM,33.8,30.2,87,30.28,0.2,Calm,Calm,-,N/A,,Overcast,0,2012-12-02 15:35:00
10:55 AM,33.8,30.2,87,30.27,0.2,Calm,Calm,-,N/A,,Overcast,0,2012-12-02 15:55:00
11:15 AM,33.8,30.2,87,30.25,0.2,Calm,Calm,-,N/A,,Overcast,0,2012-12-02 16:15:00
11:35 AM,33.8,30.2,87,30.23,0.2,Calm,Calm,-,N/A,,Overcast,0,2012-12-02 16:35:00
11:55 AM,33.8,30.2,87,30.22,0.2,Calm,Calm,-,N/A,,Overcast,0,2012-12-02 16:55:00
12:15 PM,35.6,32.0,87,30.20,0.2,Calm,Calm,-,N/A,,Overcast,0,2012-12-02 17:15:00
12:35 PM,35.6,32.0,87,30.19,0.2,Calm,Calm,-,N/A,,Overcast,0,2012-12-02 17:35:00
12:55 PM,35.6,33.8,93,30.18,0.2,Calm,Calm,-,N/A,,Overcast,0,2012-12-02 17:55:00
1:15 PM,35.6,33.8,93,30.16,0.2,Calm,Calm,-,N/A,,Overcast,0,2012-12-02 18:15:00
1:35 PM,35.6,33.8,93,30.15,0.2,Calm,Calm,-,N/A,,Overcast,0,2012-12-02 18:35:00
1:55 PM,35.6,33.8,93,30.13,0.2,SE,3.5,-,N/A,,Overcast,130,2012-12-02 18:55:00
2:15 PM,37.4,35.6,93,30.12,0.2,Calm,Calm,-,N/A,,Overcast,0,2012-12-02 19:15:00
2:35 PM,37.4,35.6,93,30.11,0.8,Calm,Calm,-,N/A,,Overcast,0,2012-12-02 19:35:00
2:55 PM,37.4,35.6,93,30.10,1.2,WSW,3.5,-,N/A,,Overcast,250,2012-12-02 19:55:00
3:15 PM,39.2,37.4,93,30.09,5.0,WSW,4.6,-,N/A,,Overcast,250,2012-12-02 20:15:00
3:35 PM,37.4,35.6,93,30.08,2.5,Calm,Calm,-,N/A,,Overcast,0,2012-12-02 20:35:00
4:15 PM,37.4,33.8,87,30.07,2.5,WNW,3.5,-,N/A,,Overcast,300,2012-12-02 21:15:00
4:35 PM,37.4,33.8,87,30.06,2.5,Calm,Calm,-,N/A,,Overcast,0,2012-12-02 21:35:00
4:55 PM,35.6,33.8,93,30.05,1.2,Calm,Calm,-,N/A,,Overcast,0,2012-12-02 21:55:00
5:15 PM,35.6,33.8,93,30.04,3.0,Calm,Calm,-,0.01,,Overcast,0,2012-12-02 22:15:00
5:35 PM,35.6,33.8,93,30.03,1.0,Calm,Calm,-,0.02,,Overcast,0,2012-12-02 22:35:00
5:55 PM,35.6,33.8,93,30.02,2.5,NW,3.5,-,0.02,,Overcast,320,2012-12-02 22:55:00
6:15 PM,35.6,33.8,93,30.01,2.0,Calm,Calm,-,N/A,,Overcast,0,2012-12-02 23:15:00
6:35 PM,35.6,33.8,93,30.01,3.0,Calm,Calm,-,N/A,,Overcast,0,2012-12-02 23:35:00
6:55 PM,37.4,35.6,93,30.01,2.0,WSW,4.6,-,0.01,,Overcast,240,2012-12-02 23:55:00
7:15 PM,41.0,39.2,93,29.99,7.0,WSW,8.1,-,N/A,,Overcast,240,2012-12-03 00:15:00
7:35 PM,42.8,39.2,87,29.99,6.0,WSW,9.2,-,0.01,,Overcast,240,2012-12-03 00:35:00
7:55 PM,42.8,39.2,87,29.98,5.0,WSW,9.2,-,0.01,,Overcast,240,2012-12-03 00:55:00
8:15 PM,42.8,39.2,87,29.99,5.0,West,9.2,-,N/A,,Overcast,260,2012-12-03 01:15:00
8:35 PM,39.2,37.4,93,29.99,4.0,West,5.8,-,0.01,,Overcast,260,2012-12-03 01:35:00
8:55 PM,41.0,37.4,87,29.99,3.0,WSW,5.8,-,0.02,,Overcast,240,2012-12-03 01:55:00
9:15 PM,39.2,37.4,93,29.98,2.5,WSW,8.1,-,0.02,,Overcast,250,2012-12-03 02:15:00
9:35 PM,41.0,37.4,87,29.97,4.0,West,4.6,-,0.02,,Overcast,270,2012-12-03 02:35:00
9:55 PM,42.8,39.2,87,29.96,5.0,West,5.8,-,0.02,,Overcast,270,2012-12-03 02:55:00
10:15 PM,42.8,39.2,87,29.96,5.0,West,8.1,-,N/A,,Overcast,270,2012-12-03 03:15:00
10:35 PM,42.8,39.2,87,29.96,5.0,WSW,9.2,-,N/A,,Overcast,250,2012-12-03 03:35:00
10:55 PM,42.8,41.0,93,29.96,5.0,WSW,8.1,-,N/A,,Overcast,250,2012-12-03 03:55:00
11:15 PM,44.6,41.0,87,29.96,5.0,WSW,8.1,-,N/A,,Overcast,250,2012-12-03 04:15:00
11:35 PM,44.6,42.8,93,29.95,5.0,WSW,10.4,-,N/A,,Overcast,240,2012-12-03 04:35:00
11:55 PM,44.6,42.8,93,29.95,6.0,WSW,11.5,-,N/A,,Overcast,240,2012-12-03 04:55:00